Regional Weather Roundup
Issued by NWS Wakefield, VA

Home | Current Version | Previous Version | Graphics & Text | Print | Product List | Glossary On
Versions: 1 2 3 4 5 6 7 8 9 10 11 12 13 14 15 16 17 18 19 20 21 22 23 24 25 26 27
000
ASUS41 KAKQ 042115
RWRAKQ

REGIONAL WEATHER ROUNDUP
NATIONAL WEATHER SERVICE WAKEFIELD VA
500 PM EDT WED MAY 04 2016

Note: "fair" indicates few or no clouds below 12,000 feet with no
significant weather and/or obstructions to visibility. * = Denotes
station may not report precipitation (e.g., rain,snow,etc.),
thunder or fog.

VAZ042-051-052>054-056-042200-
NORTHERN VIRGINIA

CITY           SKY/WX    TMP DP  RH WIND       PRES   REMARKS
WASH NATIONAL  CLOUDY    60  53  77 E9        29.65S
DULLES         CLOUDY    60  52  74 E6        29.64S
FORT BELVOIR   CLOUDY    61  54  77 VRB1      29.64S
QUANTICO       CLOUDY    64  55  72 E9        29.63F
FREDERICKSBRG* FAIR      64  57  80 E5        29.61F
STAFFORD*      CLOUDY    64  55  71 E10       29.66S
WARRENTON      DRIZZLE   59  53  79 N12       29.63R
CULPEPER*      RAIN      57  56  94 N3        29.64S
MANASSAS*      CLOUDY    61  54  77 E6        29.63F
LEESBURG*      CLOUDY    63  55  77 E8        29.64S
WINCHESTER     LGT RAIN  55  52  88 CALM        N/A
FRONT ROYAL*   CLOUDY    61  52  72 E5        29.61S
LURAY*         CLOUDY    63  50  63 CALM      29.61S
$$

VAZ048-049-060>072-079>083-042200-
CENTRAL AND SOUTH CENTRAL VIRGINIA

CITY           SKY/WX    TMP DP  RH WIND       PRES   REMARKS
RICHMOND       LGT RAIN  57  56  96 NE3       29.61F
CHESTERFIELD*  CLOUDY    61  46  59 NE5       29.61S
PETERSBURG*    PTSUNNY   71  56  59 CALM      29.59S
HANOVER        CLOUDY    59  55  87 E3        29.62F
TAPPAHANNOCK*  CLOUDY    62  57  84 NE7       29.63F
QUINTON*       CLOUDY    66  57  73 NW6       29.60R
CHARLOTTSVILLE CLOUDY    65  50  58 VRB3      29.60F
GORDONSVILLE*  CLOUDY    61  56  82 NE5       29.61S
ORANGE*        LGT RAIN  61  57  88 CALM      29.64F
LOUISA*        LGT RAIN  66  57  72 E3        29.59F
BUMPASS*       MOCLDY    65  58  78 CALM      29.60F
FARMVILLE*     FAIR      72  41  32 W5        29.58S
CREWE*         FAIR      73  46  39 W7        29.58F
FORT PICKETT*  NOT AVBL
CHASE CITY*    FAIR      71  44  38 W5        29.60S
CLARKSVILLE*   FAIR      72  46  40 NW6       29.59F
SOUTH HILL*    FAIR      71  51  49 W7        29.65S
LAWRENCEVILLE* FAIR      72  51  47 W3        29.58F
EMPORIA*       LGT RAIN  68  55  64 NW5       29.59S
$$

VAZ088>098-042200-
SOUTHEAST VIRGINIA

CITY           SKY/WX    TMP DP  RH WIND       PRES   REMARKS
NORFOLK        CLOUDY    60  56  86 NE10      29.61S
VIRGINIA BEACH CLOUDY    64  56  75 NE10      29.60S
NORFOLK NAVAL  CLOUDY    61  57  87 NE10      29.63S
WEST POINT*    PTSUNNY   64  57  78 NE6       29.63R
SALUDA*        CLOUDY    60  57  91 NE5       29.62S
NEWPORT NEWS   CLOUDY    63  59  87 E10       29.61S
LANGLEY AFB    CLOUDY    60  57  89 NE14      29.61S
FORT EUSTIS    PTSUNNY   67  58  71 NE8       29.59F
WILLIAMSBURG*  FAIR      70  61  73 CALM      29.61F
HR EXEC AP*    MOCLDY    66  61  82 NE3       29.62F
FRANKLIN*      CLOUDY    68  58  69 E5        29.59F
US460-WAKEFLD  PTSUNNY   69  57  65 CALM      29.59F
$$

VAZ020-022-025-037-045-042200-
WEST CENTRAL AND SOUTHWEST VIRGINIA

CITY           SKY/WX    TMP DP  RH WIND       PRES   REMARKS
STAUNTON*      PTSUNNY   67  41  38 NW3       29.62F
WAYNESBORO*    CLOUDY    65  40  40 CALM      29.61S
HOT SPRINGS VA FAIR      56  40  55 W16       29.64F
LYNCHBURG      CLOUDY    69  45  41 VRB6      29.61F
DANVILLE       FAIR      71  46  40 W12       29.61F
SOUTH BOSTON*  CLOUDY    71  45  40 SW6       29.60F
MARTINSVILLE   CLOUDY    67  43  41 NW6       29.65S
ROANOKE        FAIR      66  40  38 W9G17     29.63F
BLACKSBURG     FAIR      62  40  44 W7        29.68F
DUBLIN*        CLOUDY    60  43  51 NW9       29.67S
MARION*        PTSUNNY   59  42  53 W10       29.69F
HILLSVILLE*    CLOUDY    57  42  57 CALM      29.66F
RICHLANDS*     CLOUDY    57  28  33 W8        29.68S
WISE*          CLOUDY    55  34  44 SW12      29.70S
ABINGDON*      PTSUNNY   63  40  44 W6        29.67F
$$

MDZ021>025-VAZ099-100-042200-
SOUTHERN MARYLAND AND THE DELMARVA PENINSULA

CITY           SKY/WX    TMP DP  RH WIND       PRES   REMARKS
PATUXENT RIVER CLOUDY    56  52  86 N10       29.65S
BAY BRIDGE APT NOT AVBL
LEONARDTOWN    CLOUDY    55  52  88 N6        29.66S
DOVER          CLOUDY    54  54 100 N9        29.67R
GEORGETOWN     CLOUDY    53  51  93 N10       29.67R FOG
EASTON         CLOUDY   N/A N/A N/A NE8       29.69F HAZE
CAMBRIDGE        N/A     54  52  94 N7        29.65S
SALISBURY      CLOUDY    54  52  93 NE10      29.65S FOG
OCEAN CITY     CLOUDY    52  51  97 NE10      29.65F FOG
WALLOPS ISLAND CLOUDY    56  53  90 NE12      29.65R
ACCOMACK*      CLOUDY   N/A N/A N/A NE7       29.63R
$$

NCZ012>017-030>032-042200-
NORTH CENTRAL AND EASTERN NORTH CAROLINA

CITY           SKY/WX    TMP DP  RH WIND       PRES   REMARKS
ROANOKE RAPIDS FAIR      72  54  53 W3        29.58S
RALEIGH        MOSUNNY   72  49  44 VRB5      29.60F
ELIZABETH CITY PTSUNNY   71  59  65 N9        29.58F
AHOSKIE*       MOSUNNY   69  58  67 NE3       29.58F
EDENTON*       SUNNY     72  62  71 N6        29.58F
CURRITUCK*     NOT AVBL
KILL DEVIL HLS PTSUNNY   65  57  74 NE9       29.58F
MANTEO         MOSUNNY   64  61  88 NE10      29.59S
CAPE HATTERAS  MOSUNNY   70  64  81 SW5       29.58F
TARBORO*       FAIR      75  58  54 NW6       29.58F
GOLDSBORO      MOSUNNY   76  56  49 VRB7      29.57S
WASHINGTON     SUNNY     75  58  55 W7        29.56S
GREENVILLE     MOSUNNY   77  59  53 NW6       29.61S
NEW BERN       PTSUNNY   77  61  57 NW8       29.57S
WILMINGTON     MOSUNNY   80  59  48 W12       29.56S
$$

VAZ048-042200-
ELSEWHERE

CITY           SKY/WX    TMP DP  RH WIND       PRES   REMARKS
HARRISBURG PA  CLOUDY    57  49  74 E8        29.66F
BALTIMORE      CLOUDY    55  51  86 E7        29.65F
ANNAPOLIS      CLOUDY    56  52  86 NE8       29.66S
ANDREWS AFB    CLOUDY    57  52  84 E8        29.63F
PHILADELPHIA   CLOUDY    53  45  74 NE9       29.70S
HENDERSON NC   SUNNY     71  50  46 W5        29.60F
GREENSBORO     PTSUNNY   68  44  42 W8        29.62F
ROCKY MOUNT    PTSUNNY   74  54  49 W5        29.58F
$$

VAZ100-042200-
MARINE

STATION/POSITION TIME  TEMP    WIND        PRES    WAVE   SWELL
                       AIR SEA DIR/SP/G            HT/PER HT/PER
                 (UTC) (F)     (DEG/KT/KT) (MB)    (FT/S) (FT/S)
BRANDYWINE LGT   2000   51      30/ 15/ 17 1004.4F
CAPE MAY NJ      2000   52 57  360/  5/  7 1004.0F
LEWES DE         2000   52 56   20/ 14/ 15 1004.2F
15NM E FENWICK I 2050   50 51              1003.1R   5/ 6
OCEAN-CITY-INLET 2000   52 56   30/ 11/ 15 1003.4S
WACHAPREAGUE VA  2000   58 63  330/  3/  8 1002.7F
THOMAS POINT MD  2100   55 58   30/ 11/ 12 1005.4F
GOOSES REEF MD   2000   55 58   10/ 10/ 12 1005.4F   1/ 2
COVE POINT MD    2000   54      20/ 10/ 12 1004.6F
SOLOMONS ISLAND  2000   56 61   30/  7/  8   N/A
BISHOPS HEAD MD  2000   56 61   20/  6/  9 1003.0F
PINEY POINT MD   2000           70/  4/  6   N/A
POTOMAC MD       2000   56 60   20/ 10/ 14 1002.9F   1
CAMBRIDGE MD     2000   55 62   20/  8/ 10 1003.4F
LEWISETTA VA     2000   58 63   30/  4/  6 1003.5F
RAPPAHANNOCK LGT 2000          360/ 14/ 15 1003.5F
STINGRAY PT      2000   58 62   30/ 12/ 16 1003.5F   1/ 2
YORK RVR RNG VA  2000   59      70/ 10/ 11 1002.2F
YORKTOWN VA      2000   62 63  310/  6/  6 1002.4F
JAMESTOWN VA     2000   63 68  290/  4/  6   N/A     0
DOMINION TERM VA 2000   62     320/  5/  6 1002.7F
KIPTOPEKE VA     2000      63  350/  7/ 11   N/A
CHES BAY BRIDGE  2000   58 63  340/  8/ 10 1002.5F
CAPE HENRY VA    2000   58     350/ 10/ 11   N/A
CHESAPEAKE LGHT  2000   54      20/ 10/ 10 1003.8F
WILLOUBY STN VA  2000   60     190/  2/  2 1003.7F
CAPE HENRY BUOY  2012      57                N/A     4/ 7
CAPE CHARLES BUO 2026      58                N/A     3/ 7   2/ 7
OFFSHORE WE BUOY 2021      57                N/A     4/ 7   3/ 7
64NM E OF VA BCH 2050   55 56  360/  8/ 10 1002.0F   3/ 6   3/ 6
DUCK PIER NC     2000   58      20/ 12/ 14 1001.7F
44100 DUCK FRF   2024      60                N/A     3/ 7
44056 DUCK FRF   2011      60                N/A     3/ 6
OREGON INLET NC  2000   60 64   20/  8/ 10 1002.0F
HATTERAS NC      2000   71 70  190/  4/  8 1001.4F
DIAMOND SHLS NC  2050   71 71  240/  4/  4 1001.8F   3/ 8   3/ 8
CAPE LOOKOUT NC  2100   72     220/ 10/ 14 1000.9R
$$




USA.gov is the U.S. government's official web portal to all federal, state and local government web resources and services.